Vorticity
7 6 9 7 8 13 16 11 14 5 14 14 35 9 -5 -0 -11 -7 8 15 16 30 16 21 13 15 7 -2 5 15 5 9 6 8 8 12 9 9 9 9 10 4 10 1 1 -0 4
8 8 9 8 1 0 22 11 12 14 13 16 13 10 6 2 8 9 7 7 20 19 10 14 6 37 5 10 -10 25 7 9 4 6 7 5 2 -1 8 6 3 10 4 4 3 3 3
8 7 9 11 3 2 4 16 10 13 12 6 14 8 -6 2 5 8 10 14 9 15 38 7 -4 -43 0 12 20 9 9 8 6 5 6 4 4 -2 7 5 9 6 4 5 5 6 7
8 7 9 12 7 3 -1 -10 15 10 17 6 6 20 -0 3 2 10 10 6 5 6 3 61 -40 31 36 -2 35 8 6 10 11 13 9 11 11 4 8 -0 12 6 6 7 11 8 8
8 8 9 10 13 6 6 -1 5 15 11 18 5 4 8 6 4 5 6 9 9 11 24 5 14 52 6 6 15 -1 7 8 8 8 8 8 8 6 7 8 5 9 7 9 11 9 7
15 8 6 10 10 12 11 7 5 -3 12 16 16 8 2 4 5 5 11 6 18 14 7 21 -7 3 18 13 -8 6 9 10 10 7 6 5 5 7 9 8 10 6 12 5 7 6 5
6 13 8 8 9 11 11 14 10 11 3 8 23 8 6 6 6 14 4 15 32 31 24 39 21 -7 3 28 30 -1 14 6 10 9 14 13 11 6 6 6 4 10 4 1 -5 0 3
12 11 10 5 10 9 10 12 12 12 8 5 12 28 18 12 14 12 16 10 18 16 5 -1 7 21 21 9 7 5 6 6 7 13 10 9 10 9 9 8 6 7 1 5 9 8 8
15 6 15 9 4 10 7 11 9 17 13 7 4 9 17 10 12 -1 -15 -8 -4 -5 5 13 19 5 16 19 4 13 8 3 5 5 6 1 7 3 4 6 7 8 6 7 3 5 8
5 18 5 16 9 5 9 7 10 9 20 14 8 1 7 7 -1 -3 4 2 0 -6 -7 18 3 6 14 -3 6 4 12 4 -2 8 6 3 17 8 8 8 9 6 4 4 4 15 13
10 6 18 5 16 8 7 7 6 10 7 24 15 8 6 -1 -1 3 3 1 9 13 -4 4 1 16 16 28 5 10 7 15 10 1 16 15 8 8 7 5 11 5 3 9 11 8 11
6 9 6 16 5 15 7 9 7 7 7 8 20 21 8 11 7 6 6 3 14 2 7 9 25 10 11 14 15 6 10 13 6 3 5 9 10 8 6 11 7 4 11 15 12 9 23
4 7 11 8 13 5 14 6 9 8 9 6 15 9 24 8 7 11 12 17 -6 18 -2 9 5 7 12 7 10 13 8 5 15 2 8 10 8 11 9 7 16 11 9 11 8 13 -1
3 3 7 10 10 9 7 12 6 8 6 9 8 6 15 21 21 16 9 15 10 26 35 8 4 8 6 3 6 6 5 4 10 9 5 5 7 10 11 5 5 5 4 3 10 6 -5
4 2 3 9 9 10 8 11 10 7 9 5 7 12 5 10 16 15 26 26 25 -6 6 -0 -3 -1 8 15 11 2 10 8 9 7 8 9 7 10 7 10 2 11 8 5 1 19 15
4 4 2 3 6 12 8 9 13 9 7 9 5 6 10 9 9 24 25 25 20 9 -1 7 8 8 5 5 5 5 12 5 12 8 7 10 6 11 7 8 8 6 11 7 10 8 13
3 3 4 4 2 5 13 6 12 14 8 4 9 8 10 7 13 8 9 6 6 7 1 7 8 10 6 9 7 5 10 5 13 16 7 14 11 9 7 16 18 8 4 13 5 3 3
4 3 3 3 4 3 3 13 9 12 19 8 4 10 10 4 19 9 10 13 10 6 10 11 10 9 5 10 9 7 5 10 8 8 5 5 10 8 20 17 3 6 5 7 1 18 3
5 4 4 3 3 5 5 5 14 11 10 16 7 7 4 6 5 7 4 8 10 7 6 8 13 8 7 9 6 9 11 9 8 7 6 5 5 12 16 18 15 12 17 13 5 2 14
3 3 4 5 4 4 5 4 5 15 10 10 20 9 9 5 7 4 5 5 8 3 6 9 8 7 7 5 11 3 3 5 6 9 7 8 10 -2 -8 -4 3 -11 -5 3 17 6 1
4 3 2 3 4 3 6 7 4 10 15 11 6 12 5 1 4 5 8 7 6 5 7 3 5 6 7 9 6 6 5 7 7 9 8 9 7 1 12 -2 9 16 15 12 -3 -4 -16
9 9 7 7 9 9 5 8 8 8 15 12 13 4 15 7 5 6 3 2 6 7 7 8 4 6 3 3 1 3 6 4 9 5 -2 -1 8 -7 9 47 13 3 7 6 11 23 1
4 8 9 10 12 12 11 10 10 8 16 13 8 11 6 9 13 8 7 6 3 4 10 8 5 2 2 4 4 3 5 6 2 3 2 11 14 -7 33 5 -3 53 67 40 40 39 30
9 9 9 7 9 12 12 14 12 9 16 12 8 9 11 6 4 11 12 10 6 5 6 5 1 3 5 5 2 3 5 16 18 22 19 5 12 13 -0 36 20 5 -6 -10 -3 4 3
4 1 4 4 2 12 13 15 19 12 17 12 11 6 7 9 12 6 4 2 16 14 12 8 5 6 7 6 8 29 12 45 23 14 22 28 14 -13 -0 -1 -19 88 57 20 12 5 9
4 3 3 4 13 13 12 10 18 15 15 14 14 8 5 5 17 20 18 14 -6 1 13 13 15 19 19 14 16 16 4 -5 19 15 15 19 19 -11 19 6 -2 -1 -5 -3 11 36 -9
2 5 10 11 11 8 10 13 13 13 11 18 15 10 6 4 13 18 17 15 17 17 6 -7 8 9 13 12 13 18 17 -6 14 9 16 11 20 5 -1 -4 14 10 22 16 20 -18 4
8 6 7 16 11 10 8 9 7 7 9 9 16 13 6 7 5 6 7 9 11 12 10 8 12 21 9 25 11 12 14 1 10 -4 -4 4 14 6 28 2 26 9 -3 -0 -15 5 3
15 17 24 7 4 11 10 10 3 7 2 10 8 20 8 4 -8 -16 -21 -6 7 11 7 1 -5 -13 -16 -5 -10 10 6 -8 2 -10 15 6 -4 -14 -18 -36 -35 -31 -4 5 4 8 6
Height
3104 3097 3090 3083 3074 3064 3057 3047 3039 3031 3025 3017 3010 3005 3002 3002 3002 3006 3008 3010 3012 3015 3019 3025 3032 3039 3047 3053 3061 3067 3073 3079 3083 3088 3093 3096 3100 3105 3108 3112 3116 3119 3123 3126 3128 3130 3132
3107 3100 3093 3087 3079 3070 3062 3053 3045 3038 3031 3026 3021 3018 3016 3014 3014 3015 3016 3017 3019 3021 3025 3028 3033 3038 3047 3055 3062 3068 3073 3078 3082 3087 3090 3094 3097 3102 3108 3111 3115 3118 3122 3124 3125 3127 3129
3110 3103 3096 3090 3083 3076 3068 3060 3053 3045 3039 3034 3029 3026 3027 3026 3024 3024 3024 3024 3026 3027 3030 3033 3036 3041 3047 3055 3060 3067 3073 3078 3083 3087 3092 3096 3099 3104 3108 3111 3114 3117 3120 3121 3122 3124 3125
3113 3107 3100 3094 3087 3081 3073 3067 3060 3054 3049 3043 3038 3035 3032 3033 3031 3030 3030 3031 3032 3033 3033 3036 3039 3044 3047 3057 3058 3066 3073 3080 3086 3090 3094 3098 3102 3106 3108 3111 3113 3116 3118 3119 3120 3120 3121
3115 3110 3104 3097 3091 3084 3078 3072 3067 3061 3057 3052 3048 3045 3043 3040 3038 3036 3035 3037 3035 3038 3037 3038 3045 3049 3053 3059 3060 3067 3077 3082 3087 3091 3095 3099 3102 3105 3108 3110 3113 3114 3115 3116 3118 3118 3118
3119 3113 3107 3101 3094 3088 3083 3077 3072 3067 3063 3059 3056 3053 3051 3047 3045 3043 3043 3041 3041 3040 3041 3043 3050 3056 3059 3063 3065 3072 3078 3085 3089 3092 3096 3099 3102 3104 3106 3109 3111 3113 3114 3115 3116 3116 3115
3124 3116 3110 3104 3099 3093 3087 3081 3076 3072 3068 3064 3060 3059 3056 3054 3052 3050 3050 3047 3047 3047 3048 3048 3056 3059 3062 3066 3069 3076 3082 3085 3089 3092 3096 3098 3101 3103 3106 3109 3110 3111 3113 3114 3113 3113 3111
3128 3121 3114 3108 3103 3097 3091 3086 3080 3076 3072 3070 3065 3062 3061 3059 3057 3056 3058 3052 3050 3055 3054 3060 3062 3064 3066 3071 3076 3081 3084 3087 3091 3093 3096 3100 3102 3105 3107 3108 3110 3111 3112 3112 3112 3110 3109
3133 3125 3118 3112 3107 3102 3097 3091 3086 3081 3077 3073 3071 3068 3066 3065 3062 3064 3062 3060 3061 3062 3062 3068 3070 3073 3075 3077 3080 3085 3089 3089 3091 3094 3097 3100 3103 3105 3107 3108 3109 3109 3110 3111 3111 3108 3107
3136 3130 3123 3116 3111 3106 3102 3097 3091 3086 3081 3078 3075 3073 3071 3071 3071 3067 3067 3066 3067 3067 3068 3078 3077 3081 3083 3083 3086 3088 3091 3093 3094 3096 3098 3101 3102 3104 3106 3107 3108 3109 3109 3110 3109 3108 3107
3139 3133 3128 3121 3115 3110 3106 3101 3097 3091 3086 3082 3079 3076 3075 3073 3073 3072 3073 3071 3070 3069 3075 3089 3087 3088 3087 3087 3090 3091 3093 3095 3096 3097 3101 3102 3102 3104 3105 3107 3108 3108 3109 3109 3108 3107 3104
3144 3137 3131 3125 3120 3115 3109 3106 3102 3097 3092 3087 3083 3080 3077 3077 3076 3075 3073 3072 3073 3076 3088 3092 3091 3090 3090 3091 3093 3094 3096 3098 3099 3100 3101 3102 3103 3105 3106 3107 3107 3108 3108 3108 3107 3106 3105
3148 3142 3135 3128 3123 3118 3114 3109 3106 3103 3099 3093 3088 3085 3082 3079 3079 3077 3075 3076 3077 3082 3096 3097 3094 3093 3093 3094 3096 3097 3098 3100 3101 3103 3103 3103 3105 3106 3107 3108 3108 3108 3107 3108 3109 3106 3103
3151 3145 3140 3134 3127 3122 3117 3113 3108 3106 3103 3099 3095 3089 3087 3083 3080 3080 3079 3080 3081 3092 3094 3097 3096 3097 3097 3098 3100 3100 3100 3101 3102 3103 3105 3106 3107 3106 3107 3108 3108 3108 3109 3110 3113 3108 3101
3153 3148 3143 3137 3131 3126 3121 3117 3113 3109 3106 3104 3101 3096 3094 3088 3085 3084 3085 3085 3094 3095 3096 3097 3099 3099 3100 3100 3102 3101 3102 3103 3103 3104 3106 3106 3106 3106 3106 3106 3108 3108 3109 3110 3108 3105 3102
3155 3151 3146 3141 3135 3129 3125 3120 3116 3112 3109 3106 3104 3100 3096 3094 3092 3090 3090 3086 3094 3097 3099 3100 3100 3102 3102 3103 3103 3103 3104 3104 3103 3104 3104 3104 3106 3105 3106 3106 3106 3106 3108 3108 3107 3107 3099
3154 3151 3148 3143 3139 3134 3128 3123 3120 3116 3112 3109 3107 3104 3100 3098 3098 3097 3094 3092 3096 3099 3101 3102 3103 3103 3103 3102 3103 3104 3104 3104 3103 3103 3103 3103 3104 3106 3105 3104 3103 3104 3103 3103 3104 3103 3101
3153 3150 3147 3144 3140 3136 3131 3126 3122 3118 3115 3112 3109 3107 3104 3103 3102 3099 3098 3098 3099 3100 3100 3102 3104 3106 3105 3105 3105 3104 3104 3104 3104 3104 3103 3103 3103 3102 3102 3102 3101 3101 3100 3100 3100 3100 3098
3151 3148 3145 3143 3140 3136 3132 3128 3123 3120 3116 3114 3111 3109 3107 3105 3105 3103 3102 3102 3103 3104 3103 3103 3103 3105 3106 3106 3107 3105 3105 3105 3104 3104 3103 3103 3102 3100 3100 3102 3099 3097 3096 3095 3096 3095 3091
3147 3145 3143 3140 3137 3135 3131 3128 3124 3119 3116 3114 3112 3110 3109 3106 3105 3105 3105 3104 3103 3104 3104 3105 3105 3104 3104 3104 3105 3105 3104 3104 3103 3102 3101 3101 3099 3098 3096 3094 3093 3091 3091 3091 3091 3089 3082
3143 3141 3139 3137 3134 3131 3129 3126 3122 3119 3115 3113 3111 3110 3108 3107 3106 3104 3105 3105 3104 3104 3104 3103 3104 3104 3103 3102 3103 3104 3103 3102 3101 3100 3099 3099 3095 3093 3091 3090 3088 3084 3082 3084 3081 3079 3076
3140 3137 3135 3133 3130 3127 3124 3122 3119 3116 3113 3111 3109 3108 3107 3104 3104 3105 3103 3102 3102 3104 3104 3103 3102 3102 3102 3102 3102 3102 3101 3101 3100 3099 3097 3096 3093 3089 3082 3082 3079 3074 3073 3072 3071 3070 3066
3134 3132 3130 3127 3126 3122 3119 3116 3114 3112 3110 3107 3105 3104 3104 3104 3101 3101 3102 3101 3100 3099 3100 3101 3101 3100 3100 3100 3098 3098 3097 3097 3096 3093 3093 3093 3091 3088 3078 3077 3073 3065 3059 3061 3060 3059 3058
3127 3126 3124 3121 3120 3117 3114 3111 3109 3107 3106 3104 3102 3100 3100 3099 3099 3098 3097 3097 3097 3098 3098 3098 3097 3097 3098 3096 3095 3095 3093 3091 3089 3089 3087 3087 3087 3088 3079 3075 3071 3056 3054 3055 3053 3052 3051
3120 3119 3118 3115 3114 3113 3108 3106 3103 3100 3101 3099 3097 3097 3095 3094 3095 3095 3094 3094 3092 3092 3092 3091 3092 3092 3092 3091 3090 3088 3087 3085 3081 3080 3080 3080 3083 3083 3079 3074 3059 3049 3049 3050 3048 3046 3044
3111 3111 3110 3108 3106 3105 3103 3101 3098 3095 3095 3094 3093 3092 3091 3090 3091 3089 3089 3089 3089 3088 3087 3086 3086 3085 3085 3084 3084 3084 3084 3081 3079 3076 3075 3075 3077 3079 3076 3074 3063 3050 3049 3048 3046 3041 3040
3100 3101 3101 3101 3099 3098 3097 3095 3093 3091 3090 3091 3088 3087 3086 3085 3086 3085 3084 3084 3083 3083 3082 3082 3082 3080 3079 3078 3077 3077 3076 3078 3076 3073 3070 3071 3072 3070 3073 3069 3050 3045 3045 3046 3046 3045 3038
3091 3091 3091 3092 3092 3091 3090 3089 3087 3087 3085 3085 3083 3082 3081 3079 3081 3079 3079 3078 3078 3078 3077 3076 3077 3074 3073 3072 3072 3071 3069 3068 3067 3065 3065 3066 3064 3063 3064 3063 3047 3041 3042 3043 3041 3037 3035
3079 3080 3081 3082 3083 3084 3083 3082 3080 3080 3080 3079 3079 3076 3074 3073 3075 3073 3072 3072 3072 3072 3071 3069 3070 3070 3068 3068 3067 3065 3063 3062 3060 3059 3058 3058 3055 3053 3051 3042 3039 3038 3037 3035 3032 3031 3029